Location: Izdebno
(52.6670°N, 16.2170°E)
Time: 11:46:33
(UTC+02:00)

Vanguard 2 - Pass Details

Date: 30 January 2023
Orbit: 553 x 2927 km, 32.9° (Epoch: 26 March)

Event Time Altitude Azimuth Distance (km) Brightness Sun altitude
Rises 02:59:06 0° 261° (W) 6,737 - -41.8°
Reaches altitude 10° 03:04:20 10° 253° (WSW) 5,761 - -41.1°
Maximum altitude 03:18:18 31° 201° (SSW) 3,971 - -39.3°
Exits shadow 03:22:02 28° 180° (S) 3,948 10.8 -38.7°
Drops below altitude 10° 03:29:51 10° 147° (SSE) 4,722 11.6 -37.6°
Sets 03:33:38 0° 137° (SE) 5,403 12.1 -37.1°
